Location: Biltmore Gardens
(41.6070°N, 83.4666°W)
Time: 09:36:55
(UTC+00:00)

Cosmos 2344 - Pass Details

Date: 20 October 2020
Orbit: 1246 x 2997 km, 63.3° (Epoch: 25 November)

Event Time Altitude Azimuth Distance (km) Brightness Sun altitude
Exits shadow 08:13:01 22° 134° (SE) 2,441 5.1 -40.8°
Maximum altitude 08:15:09 25° 109° (ESE) 2,274 5.1 -40.5°
Drops below altitude 10° 08:21:02 10° 57° (ENE) 3,274 6.4 -39.5°
Sets 08:24:26 0° 45° (NE) 4,344 7.2 -38.9°
